Location: Grand Mazuras
(45.9128°N, 1.7636°E)
Time: 06:52:48
(UTC+00:00)

BREEZE M DEB (TANK) - Pass Details

Date: 18 April 2021
Orbit: 342 x 13618 km, 49.6° (Epoch: 13 May)

Event Time Altitude Azimuth Distance (km) Brightness Sun altitude
Exits shadow 21:58:41 12° 240° (WSW) 2,033 5.7 -27.5°
Maximum altitude 22:02:51 84° 154° (SSE) 1,243 4.3 -27.9°
Drops below altitude 10° 22:19:51 10° 69° (ENE) 7,453 8.5 -29.3°
Sets 22:30:37 0° 70° (ENE) 10,824 9.3 -30.1°
